Date String (YYYY-MM-DD hh:mm:ss) UTC,Instrument flags,Ambient pressure (hPa),Sample flow (lpm),Bypass flow (lpm),Sample temperature (°C),Ambient temperature (°C),ASC tube jacket temperature (°C),LED temperature (°C),Box temperature (°C),Sample RH (%),Span deviation,Mass concentration (μg/m³),Mass concentration (μg/m³),Mass concentration (μg/m³)
DateTimeUTC,F1_M11,P_M11,Q1_M11,Q2_M11,T1_M11,T2_M11,T3_M11,T4_M11,T5_M11,U1_M11,ZSPAN_M11,X2_M11,X0_M11,X1_M11
2021-09-15 07:00:00,,0827.4,5.00,0.00,30.2,29.5,00.0,39.3,32.0,27.2,0000.5,0008.99,0017.12,0007.67
2021-09-15 07:01:00,,0827.4,5.00,0.00,30.2,29.5,00.0,39.3,32.0,27.2,0000.5,0009.06,0018.54,0007.69
2021-09-15 07:02:00,,0827.4,4.99,0.00,30.2,29.5,00.0,39.3,32.0,27.2,0000.7,0009.06,0018.19,0007.71
2021-09-15 07:03:00,,0827.4,5.02,0.00,30.2,29.5,00.0,39.3,32.0,27.2,0000.7,0009.08,0018.28,0007.73
2021-09-15 07:04:00,,0827.5,5.00,0.00,30.3,29.5,00.0,39.3,32.0,27.3,0000.8,0009.10,0018.09,0007.75
2021-09-15 07:05:00,,0827.5,4.99,0.00,30.3,29.5,00.0,39.4,32.0,27.3,0000.9,0009.15,0018.77,0007.77
2021-09-15 07:06:00,,0827.4,5.01,0.00,30.2,28.3,00.0,39.3,31.7,27.3,0001.1,0009.12,0018.25,0007.77
2021-09-15 07:07:00,,0827.4,4.99,0.00,30.1,26.6,00.0,39.3,31.3,27.6,0001.3,0009.15,0018.30,0007.76
2021-09-15 07:08:00,,0827.4,5.00,0.00,29.9,26.4,00.0,39.2,31.2,27.8,0001.7,0009.15,0017.71,0007.76
2021-09-15 07:09:00,,0827.4,5.00,0.00,29.8,26.7,00.0,39.2,31.2,28.6,0001.9,0009.09,0017.54,0007.74
2021-09-15 07:10:00,,0827.4,5.01,0.00,29.8,27.2,00.0,39.1,31.2,28.6,0002.1,0009.04,0017.96,0007.72
2021-09-15 07:11:00,,0827.4,5.00,0.00,29.8,27.5,00.0,39.1,31.3,28.7,0002.2,0009.05,0017.88,0007.71
2021-09-15 07:12:00,,0827.4,4.99,0.00,29.8,27.8,00.0,39.1,31.4,28.7,0002.1,0009.03,0016.46,0007.72
2021-09-15 07:13:00,,0827.4,5.01,0.00,29.8,28.1,00.0,39.0,31.4,28.7,0002.0,0009.02,0016.51,0007.72
2021-09-15 07:14:00,,0827.4,4.99,0.00,29.8,28.2,00.0,39.0,31.5,28.6,0001.8,0008.97,0017.05,0007.71
2021-09-15 07:15:00,,0827.4,5.01,0.00,29.8,28.4,00.0,39.0,31.5,28.6,0001.5,0008.97,0017.69,0007.71
2021-09-15 07:16:00,,0827.4,4.99,0.00,29.8,28.5,00.0,39.0,31.5,28.6,0001.0,0008.94,0016.86,0007.69
2021-09-15 07:17:00,,0827.4,4.99,0.00,29.8,28.6,00.0,39.0,31.5,28.5,0000.6,0008.95,0016.83,0007.68
2021-09-15 07:18:00,,0827.4,5.01,0.00,29.8,28.6,00.0,39.0,31.5,28.4,0000.7,0008.94,0017.10,0007.67
2021-09-15 07:19:00,,0827.3,5.00,0.00,29.8,28.7,00.0,39.0,31.5,28.4,0000.5,0008.93,0017.12,0007.64
2021-09-15 07:20:00,,0827.3,5.00,0.00,29.8,28.7,00.0,39.0,31.4,28.4,-000.1,0008.96,0017.16,0007.64
2021-09-15 07:21:00,,0827.2,5.00,0.00,29.7,28.7,00.0,39.0,31.4,28.4,-000.9,0009.03,0016.96,0007.66
2021-09-15 07:22:00,,0827.2,5.00,0.00,29.8,28.8,00.0,39.0,31.5,28.4,-001.2,0009.00,0016.96,0007.64
2021-09-15 07:23:00,,0827.3,4.99,0.00,29.7,28.8,00.0,39.0,31.4,28.5,-001.4,0008.94,0016.91,0007.60
2021-09-15 07:24:00,,0827.2,5.01,0.00,29.7,28.8,00.0,39.0,31.4,28.5,-001.3,0008.85,0016.78,0007.57
2021-09-15 07:25:00,,0827.2,5.01,0.00,29.7,28.8,00.0,38.9,31.4,28.6,-001.1,0008.82,0016.19,0007.53
2021-09-15 07:26:00,,0827.2,4.99,0.00,29.7,28.8,00.0,38.9,31.4,28.6,-000.9,0008.77,0015.14,0007.49
2021-09-15 07:27:00,,0827.2,5.00,0.00,29.7,28.8,00.0,38.9,31.4,28.7,-001.2,0008.74,0015.33,0007.46
2021-09-15 07:28:00,,0827.2,5.00,0.00,29.7,28.9,00.0,38.9,31.4,28.7,-001.0,0008.67,0015.33,0007.41
2021-09-15 07:29:00,,0827.1,5.01,0.00,29.7,28.9,00.0,38.9,31.4,28.5,-001.0,0008.63,0014.74,0007.39
2021-09-15 07:30:00,,0827.1,5.00,0.00,29.7,28.9,00.0,38.9,31.4,28.5,-001.2,0008.57,0015.23,0007.37
2021-09-15 07:31:00,,0827.2,5.00,0.00,29.7,28.9,00.0,38.9,31.4,28.6,-000.9,0008.53,0015.77,0007.35
2021-09-15 07:32:00,,0827.4,5.01,0.00,29.7,28.9,00.0,38.9,31.4,28.7,-000.4,0008.45,0016.26,0007.30
2021-09-15 07:33:00,,0827.4,4.99,0.00,29.7,28.8,00.0,38.9,31.4,28.7,-000.2,0008.37,0015.75,0007.27
2021-09-15 07:34:00,,0827.0,5.01,0.00,29.7,28.9,00.0,38.9,31.4,28.5,0000.2,0008.38,0015.67,0007.27
2021-09-15 07:35:00,,0827.0,5.00,0.00,29.7,28.9,00.0,38.9,31.4,28.5,-000.0,0008.42,0016.08,0007.27
2021-09-15 07:36:00,,0827.0,5.00,0.00,29.7,28.9,00.0,38.9,31.4,28.5,-000.2,0008.44,0016.57,0007.27
2021-09-15 07:37:00,,0827.0,4.99,0.00,29.7,28.9,00.0,38.9,31.4,28.6,0000.2,0008.43,0017.35,0007.27
2021-09-15 07:38:00,,0827.1,5.01,0.00,29.7,28.9,00.0,38.9,31.4,28.6,0000.7,0008.40,0017.45,0007.28
2021-09-15 07:39:00,,0827.0,4.99,0.00,29.7,28.9,00.0,38.9,31.4,28.7,0000.5,0008.37,0017.50,0007.28
2021-09-15 07:40:00,,0827.1,5.01,0.00,29.7,28.9,00.0,38.9,31.4,27.9,0000.7,0008.39,0017.87,0007.30
2021-09-15 07:41:00,,0827.1,5.00,0.00,29.7,28.9,00.0,38.9,31.4,26.6,0000.9,0008.40,0017.48,0007.31
2021-09-15 07:42:00,,0827.0,5.00,0.00,29.7,28.9,00.0,38.9,31.5,25.9,0001.0,0008.44,0017.32,0007.32
2021-09-15 07:43:00,,0826.9,5.00,0.00,29.7,29.0,00.0,38.9,31.4,25.6,0001.2,0008.46,0016.88,0007.35
2021-09-15 07:44:00,,0826.9,5.00,0.00,29.7,29.0,00.0,38.9,31.4,25.5,0001.2,0008.48,0017.21,0007.37
2021-09-15 07:45:00,,0826.9,4.99,0.00,29.7,29.0,00.0,38.9,31.4,25.6,0001.2,0008.46,0018.09,0007.36
2021-09-15 07:46:00,,0827.0,5.00,0.00,29.7,29.0,00.0,38.9,31.4,25.6,0001.7,0008.45,0018.26,0007.37
2021-09-15 07:47:00,,0827.0,5.00,0.00,29.7,29.0,00.0,38.9,31.4,25.3,0002.1,0008.42,0018.34,0007.37
2021-09-15 07:48:00,,0826.9,5.00,0.00,29.7,29.0,00.0,38.9,31.4,25.2,0001.9,0008.45,0018.30,0007.36
2021-09-15 07:49:00,,0826.9,5.00,0.00,29.7,29.0,00.0,38.9,31.4,25.1,0002.1,0008.42,0017.83,0007.36
2021-09-15 07:50:00,,0826.9,5.01,0.00,29.7,29.0,00.0,38.9,31.4,25.3,0002.4,0008.42,0017.59,0007.36
2021-09-15 07:51:00,,0826.9,4.99,0.00,29.7,28.9,00.0,38.9,31.4,25.2,0002.7,0008.40,0017.17,0007.35
2021-09-15 07:52:00,,0826.9,5.00,0.00,29.7,28.9,00.0,38.9,31.4,25.2,0002.8,0008.41,0017.09,0007.34
2021-09-15 07:53:00,,0826.9,5.01,0.00,29.7,28.9,00.0,38.9,31.4,25.2,0002.8,0008.36,0016.94,0007.32
2021-09-15 07:54:00,,0826.9,4.99,0.00,29.7,28.9,00.0,38.9,31.4,25.2,0003.0,0008.35,0016.93,0007.32
2021-09-15 07:55:00,,0826.8,5.02,0.00,29.7,28.9,00.0,38.9,31.4,25.3,0003.0,0008.35,0016.85,0007.32
2021-09-15 07:56:00,,0826.9,4.98,0.00,29.7,28.9,00.0,38.9,31.3,25.3,0003.1,0008.33,0016.05,0007.31
2021-09-15 07:57:00,,0826.9,5.01,0.00,29.6,28.9,00.0,38.9,31.3,25.3,0002.9,0008.32,0015.44,0007.30
2021-09-15 07:58:00,,0826.9,4.99,0.00,29.6,28.8,00.0,38.9,31.3,25.4,0002.6,0008.31,0014.70,0007.30
2021-09-15 07:59:00,,0827.0,5.01,0.00,29.6,28.8,00.0,38.9,31.3,25.4,0002.4,0008.28,0013.99,0007.30
